This demonstration page uses our WeatherBlox Daily Observations layout. Learn more.

Left ArrowRight Arrow

Hourly Observations for February 19, 2016

Temp ( °F °C ) Dew Point ( °F °C ) Humidity (%) Winds ( mph kmh ) Pressure ( in mb ) Visibility ( mi km ) Precip ( " mm )
12:58 am 00:58 Clear 42 5.7 42 5.4 98 98 E 8 13 29.36 994 10 16 0.00 0.00
1:58 am 01:58 Clear 60 15.3 48 8.8 65 65 SSW 16 26 29.34 994 10 16 0.00 0.00
2:58 am 02:58 Clear 61 16 39 4 45 45 W 15 24 29.39 995 10 16 0.00 0.00
3:58 am 03:58 Clear 57 13.8 36 2.3 46 46 W 23 37 29.47 998 10 16 0.00 0.00
4:58 am 04:58 Clear 55 12.9 29 -1.4 37 37 W 25 41 29.53 1000 10 16 0.00 0.00
5:58 am 05:58 Clear 53 11.4 33 0.4 47 47 WNW 31 50 29.63 1003 10 16 0.00 0.00
6:58 am 06:58 Clear 48 9.1 36 2.2 62 62 WNW 23 37 29.70 1006 10 16 0.01 0.25
7:58 am 07:58 Sunny 48 9.1 35 1.9 61 61 WNW 16 26 29.75 1008 10 16 0.00 0.00
8:58 am 08:58 Sunny 50 9.8 38 3.1 63 63 W 10 17 29.80 1009 10 16 0.00 0.00
9:58 am 09:58 Sunny 53 11.5 38 3.1 57 57 W 13 20 29.82 1010 10 16 0.00 0.00
10:58 am 10:58 Sunny 57 14 34 1.1 42 42 W 13 20 29.85 1011 10 16 0.00 0.00
11:58 am 11:58 Sunny 61 15.9 31 -0.6 33 33 W 18 30 29.87 1011 10 16 0.00 0.00
12:58 pm 12:58 Sunny 63 17.2 30 -0.9 29 29 W 15 24 29.86 1011 10 16 0.00 0.00
1:58 pm 13:58 Sunny 64 18 29 -1.4 27 27 W 18 30 29.85 1011 10 16 0.00 0.00
2:58 pm 14:58 Sunny 65 18.4 30 -1 27 27 W 15 24 29.85 1011 10 16 0.00 0.00
3:58 pm 15:58 Sunny 65 18.4 31 -0.5 28 28 W 17 28 29.86 1011 10 16 0.00 0.00
4:58 pm 16:58 Sunny 64 18 31 -0.7 28 28 WSW 10 17 29.88 1012 10 16 0.00 0.00
5:58 pm 17:58 Sunny 60 15.8 30 -1.1 32 32 SW 8 13 29.89 1012 10 16 0.00 0.00
6:58 pm 18:58 Clear 54 12.1 31 -0.3 43 43 S 8 13 29.91 1013 10 16 0.00 0.00
7:58 pm 19:58 Clear 53 11.6 31 -0.8 43 43 SSW 7 11 29.90 1012 10 16 0.00 0.00
8:58 pm 20:58 Clear 52 11.2 30 -1.2 42 42 S 7 11 29.90 1012 10 16 0.00 0.00
9:58 pm 21:58 Clear 52 11.2 29 -1.9 40 40 SSW 10 17 29.89 1012 10 16 0.00 0.00
10:58 pm 22:58 Clear 52 11 28 -2.4 39 39 SSW 12 19 29.88 1012 10 16 0.00 0.00
11:58 pm 23:58 Clear 51 10.6 28 -2.4 40 40 SW 8 13 29.88 1012 10 16 0.00 0.00

Powered by AerisWeather